Torna al catalogo

HULIANWANG DIGUI-37

AttivoComunicazioniPO
NORAD 64958·PAYLOAD·🇨🇳 China

Lanciato Jul 27, 2025 da Taiyuan Satellite Launch Center

Loading…

Prossimi Passaggi (prossime 24 ore)

TLE

AggiornatoSource: Space-Track

Epoca: Sep 14, 2026, 21:58 UTC

1 64958U 25159C   26257.91577830 -.00000066  00000-0 -18751-3 0  9995
2 64958  86.4855 251.9323 0002032  91.4164 268.7203 13.24404090 55002

Traccia HULIANWANG DIGUI-37 in tempo reale con AllMySat

Download on the App Store